Temp
91 90 87 88 84 86 85 85 84 84 84 83 83 81 81 77 80 79 84 83 82 82 84 84 82 84 87 93 92 92 91 91 84 87 95 94 90 91 94 95 94 94 95
92 90 89 88 86 83 74 78 75 84 86 83 82 75 75 78 82 82 83 81 84 80 82 84 85 89 84 87 91 88 90 91 90 84 90 93 88 91 90 89 93 99 98
88 91 89 89 85 82 78 77 79 84 86 86 76 73 79 82 80 80 81 84 86 85 85 86 86 86 83 87 85 86 89 90 89 88 88 93 93 93 91 90 90 92 95
87 88 87 87 86 87 82 80 80 81 84 85 81 75 76 79 79 83 85 82 84 78 86 87 86 87 86 85 85 85 88 85 87 88 88 90 90 90 91 89 90 94 94
85 86 86 84 84 83 84 83 79 78 82 85 83 81 80 77 78 79 82 83 75 76 84 88 89 86 79 80 86 86 84 85 88 88 87 86 88 87 84 91 89 91 91
85 85 85 85 85 84 83 77 78 83 81 83 82 83 81 80 74 72 77 83 82 78 80 85 88 80 78 73 72 72 77 84 82 80 80 81 83 86 89 88 83 81 80
84 85 85 85 84 84 84 80 78 79 81 81 82 83 82 82 69 70 72 82 84 84 84 86 87 93 82 87 72 70 70 69 72 83 81 83 81 85 85 82 82 80 82
81 83 84 84 84 84 84 83 81 80 79 78 79 82 83 83 68 67 69 78 84 85 85 86 86 86 86 86 86 85 84 86 83 85 84 85 85 87 86 83 81 80 85
80 80 81 82 82 83 82 83 83 83 82 79 80 80 81 83 66 65 69 82 81 79 76 79 85 84 73 70 83 85 86 88 78 73 71 68 69 71 74 83 84 85 84
78 80 80 80 80 80 82 81 82 83 83 85 79 82 77 83 69 63 68 85 83 86 82 77 68 78 69 65 80 84 81 86 88 88 83 77 71 77 67 81 87 84 85
78 78 79 79 79 80 80 81 81 81 82 82 82 81 80 82 82 61 61 83 87 85 83 87 89 65 64 60 65 84 83 85 81 82 88 90 85 86 85 83 84 85 83
77 76 76 77 80 83 80 80 80 79 79 80 80 82 84 80 68 62 59 63 76 86 86 91 86 62 62 59 64 69 65 66 86 90 89 89 88 89 90 88 84 84 87
75 74 75 76 78 78 77 78 81 80 81 82 85 85 80 78 83 61 58 59 61 74 88 79 65 57 58 60 58 62 61 82 85 87 87 86 86 91 89 86 84 82 81
72 73 75 75 75 77 80 82 82 83 84 84 85 84 83 78 82 84 70 66 61 67 69 78 76 72 68 73 75 66 79 84 85 86 87 84 84 86 86 87 85 85 84
73 74 75 78 77 78 79 80 82 82 82 84 86 87 85 80 82 74 74 75 73 67 71 83 81 80 81 81 84 85 84 84 83 85 86 80 79 84 86 87 86 86 83
71 74 75 78 80 80 80 80 63 63 57 51 50 62 80 64 55 56 51 51 51 52 67 71 74 79 81 84 85 85 86 81 84 85 85 79 78 82 86 86 86 84 82
69 71 76 73 78 78 78 78 77 72 54 51 51 49 48 56 48 48 49 47 49 56 69 70 72 76 78 82 86 87 86 87 83 86 85 81 81 86 83 85 85 79 78
69 62 73 74 75 76 78 77 78 78 78 80 57 56 49 47 46 44 46 53 72 62 74 76 78 78 80 81 80 87 88 88 86 85 85 85 86 86 85 84 84 77 79
72 74 74 74 76 74 77 78 78 78 78 80 82 59 58 46 44 44 46 72 76 76 76 79 83 84 82 77 72 78 81 87 86 84 84 85 86 86 84 85 85 65 69
74 67 66 73 71 73 77 76 77 77 78 79 80 77 79 60 60 58 57 64 72 79 81 81 82 84 84 82 72 71 74 80 83 84 85 86 86 86 86 85 85 83 79
74 72 69 74 75 75 75 77 77 78 78 79 79 80 63 77 76 70 68 67 68 75 79 82 82 75 82 83 80 73 75 74 78 85 86 86 86 85 85 85 85 84 83
76 78 79 76 75 74 75 75 78 78 79 79 80 81 51 79 78 77 77 74 75 78 81 81 80 82 84 83 82 82 78 81 79 85 86 87 86 85 85 84 84 83 81
75 78 78 75 74 68 69 73 75 77 79 79 80 83 77 80 76 73 77 79 79 80 82 82 82 82 84 84 85 83 81 82 83 87 85 85 85 84 84 83 82 81 79
73 73 69 67 69 70 67 66 74 67 77 78 80 83 84 77 77 79 82 81 82 84 83 80 81 82 79 80 77 80 78 78 88 88 87 85 85 78 84 83 83 82 80
75 77 78 77 72 68 68 68 71 73 74 74 78 80 79 76 78 81 82 82 80 79 79 80 80 80 76 73 70 72 68 53 73 73 86 85 85 83 83 83 82 81 80
64 69 71 71 68 67 65 66 69 70 69 70 76 78 77 77 80 82 77 78 78 79 80 77 78 78 73 71 71 61 45 42 66 54 84 85 84 84 82 82 81 82 79
MSLP
1009.43 1009.60 1010.08 1010.35 1010.63 1011.00 1011.02 1011.05 1010.29 1010.60 1011.45 1012.09 1012.33 1012.60 1012.79 1013.17 1013.27 1013.51 1013.35 1013.65 1014.09 1014.25 1014.16 1014.35 1014.43 1014.70 1014.65 1013.89 1014.22 1014.20 1014.08 1014.06 1013.76 1013.42 1013.73 1014.00 1014.38 1014.30 1014.07 1014.03 1014.09 1013.99 1013.69
1008.68 1009.06 1009.33 1009.81 1010.28 1010.78 1011.28 1010.35 1009.15 1009.82 1010.49 1011.51 1011.98 1012.50 1012.71 1012.71 1012.65 1012.78 1012.81 1013.20 1013.24 1013.78 1013.78 1013.79 1013.86 1013.91 1014.36 1014.25 1013.84 1013.95 1013.81 1013.89 1013.70 1013.61 1013.45 1013.55 1014.06 1013.91 1014.21 1014.18 1013.72 1012.98 1012.98
1008.76 1008.71 1008.92 1009.13 1009.51 1010.45 1010.50 1010.54 1010.74 1010.12 1010.16 1010.78 1011.77 1011.99 1012.20 1012.21 1012.47 1012.47 1012.53 1012.51 1012.64 1013.00 1013.33 1013.41 1013.44 1013.52 1013.87 1014.00 1014.15 1013.74 1014.04 1014.06 1014.01 1013.80 1013.43 1013.20 1013.45 1013.59 1013.52 1013.67 1013.56 1013.22 1013.22
1008.93 1008.99 1009.10 1009.30 1009.45 1009.40 1009.97 1010.11 1010.40 1010.44 1010.20 1010.08 1010.95 1011.38 1011.55 1011.78 1012.24 1011.98 1011.77 1012.08 1012.54 1013.07 1012.98 1013.02 1013.05 1013.06 1013.31 1013.73 1013.89 1013.98 1013.79 1013.81 1013.87 1013.72 1013.45 1013.15 1013.28 1013.41 1013.35 1013.20 1012.75 1012.44 1012.21
1009.49 1009.45 1009.47 1009.68 1009.70 1009.62 1009.34 1008.74 1008.97 1009.57 1009.61 1009.50 1010.10 1010.68 1010.97 1011.06 1011.31 1011.57 1011.72 1011.72 1012.35 1012.67 1012.52 1012.44 1012.52 1012.70 1012.93 1013.12 1013.57 1013.67 1013.75 1013.85 1013.40 1013.27 1013.13 1013.24 1012.84 1012.54 1012.67 1012.56 1012.33 1012.34 1012.14
1009.64 1009.52 1009.50 1009.37 1009.25 1009.03 1008.71 1007.99 1004.90 1008.01 1009.31 1009.33 1009.33 1009.66 1010.10 1010.43 1010.58 1010.88 1011.07 1011.07 1011.56 1012.02 1012.00 1011.93 1011.85 1012.23 1012.69 1013.12 1013.35 1013.54 1013.62 1013.53 1013.49 1013.43 1013.51 1013.10 1013.02 1012.95 1012.74 1012.75 1012.74 1012.66 1012.26
1009.90 1009.77 1009.67 1009.56 1009.33 1009.07 1008.70 1008.20 1007.83 1008.51 1009.17 1009.00 1008.77 1008.98 1009.18 1009.48 1009.61 1010.06 1010.48 1010.65 1010.55 1010.87 1011.06 1011.01 1011.33 1011.19 1011.98 1012.33 1012.89 1013.21 1013.31 1013.35 1013.39 1013.29 1013.19 1012.83 1012.79 1012.81 1012.86 1012.99 1013.00 1012.93 1012.63
1009.95 1009.77 1009.68 1009.56 1009.31 1009.09 1008.69 1008.40 1008.45 1008.57 1008.46 1008.54 1008.59 1008.38 1008.47 1008.78 1008.92 1009.33 1009.87 1010.38 1010.22 1010.16 1010.40 1010.49 1010.68 1010.86 1011.05 1011.56 1011.75 1012.02 1012.32 1012.26 1012.55 1012.79 1012.73 1012.54 1012.76 1012.70 1012.72 1012.93 1012.98 1013.02 1012.42
1009.77 1009.60 1009.44 1009.40 1009.10 1008.82 1008.52 1008.20 1007.97 1007.86 1007.90 1007.99 1007.82 1007.99 1007.93 1007.84 1008.01 1008.53 1009.36 1009.64 1009.90 1009.99 1010.25 1010.26 1010.38 1010.53 1010.91 1010.89 1011.23 1011.12 1011.11 1010.92 1011.06 1011.66 1012.01 1012.27 1012.37 1012.52 1012.74 1012.78 1012.15 1011.69 1011.22
1009.34 1009.14 1009.00 1009.05 1008.83 1008.46 1008.11 1007.94 1007.73 1007.52 1007.28 1007.13 1007.46 1007.26 1007.16 1006.97 1006.97 1007.87 1008.72 1008.33 1008.47 1008.65 1009.25 1009.74 1009.99 1010.09 1010.33 1010.45 1010.84 1010.76 1010.59 1010.41 1010.57 1010.93 1011.86 1012.24 1012.27 1012.17 1012.63 1012.44 1011.51 1011.14 1010.82
1008.97 1008.79 1008.56 1008.46 1008.27 1008.14 1007.80 1007.52 1007.38 1007.14 1006.92 1006.71 1006.60 1006.55 1006.56 1006.09 1006.15 1007.00 1007.58 1007.56 1007.07 1007.55 1007.90 1008.01 1008.26 1008.99 1009.62 1010.28 1010.29 1010.19 1009.90 1009.90 1010.14 1010.58 1010.31 1010.16 1010.46 1010.79 1011.37 1011.59 1011.32 1011.12 1010.78
1008.11 1008.15 1007.99 1007.77 1007.44 1006.83 1006.77 1006.77 1006.83 1006.70 1006.38 1005.99 1005.69 1005.52 1005.39 1005.64 1005.69 1006.50 1006.76 1007.05 1006.56 1006.58 1006.75 1006.43 1006.92 1007.59 1008.48 1009.24 1009.83 1009.77 1009.69 1009.91 1009.82 1009.07 1008.92 1008.97 1009.01 1009.25 1009.56 1010.13 1010.60 1010.84 1010.49
1007.32 1007.17 1007.10 1006.89 1006.63 1006.49 1006.29 1006.06 1005.82 1005.74 1005.49 1004.89 1004.44 1004.24 1004.70 1005.01 1004.75 1005.51 1006.17 1006.32 1006.49 1007.04 1006.16 1006.44 1006.95 1007.68 1008.16 1008.85 1009.17 1009.36 1009.62 1009.34 1008.97 1008.43 1008.20 1008.13 1008.40 1008.54 1009.04 1009.72 1010.41 1010.69 1010.82
1006.59 1006.30 1006.11 1005.88 1005.66 1005.62 1005.39 1004.98 1004.60 1004.21 1003.89 1003.72 1003.64 1003.58 1003.87 1004.38 1004.13 1004.33 1005.58 1006.02 1006.11 1005.78 1005.96 1005.73 1006.58 1007.03 1007.58 1007.77 1008.12 1008.99 1008.82 1008.29 1007.95 1007.73 1007.46 1008.09 1008.11 1008.20 1008.78 1009.19 1009.24 1009.38 1009.51
1005.71 1005.41 1005.08 1004.70 1004.48 1004.34 1004.35 1004.06 1003.67 1003.35 1003.07 1003.06 1003.17 1002.99 1002.90 1003.48 1003.46 1003.81 1004.42 1004.91 1005.02 1005.11 1004.92 1003.98 1004.89 1005.80 1006.17 1006.49 1006.49 1006.49 1007.00 1007.24 1007.36 1007.19 1006.85 1007.62 1008.08 1007.95 1008.04 1008.27 1008.47 1008.58 1008.59
1004.65 1004.36 1004.07 1003.61 1003.18 1003.01 1002.89 1002.85 1003.04 1003.27 1003.28 1003.66 1003.94 1004.24 1003.50 1003.55 1003.99 1003.75 1004.38 1004.39 1004.27 1004.74 1004.95 1004.30 1004.39 1004.39 1004.53 1004.63 1004.76 1004.95 1005.34 1005.76 1005.98 1006.13 1006.37 1006.85 1007.38 1007.42 1007.15 1007.48 1007.83 1008.15 1008.10
1003.92 1003.64 1003.10 1002.83 1002.38 1002.15 1002.13 1001.99 1001.91 1002.23 1002.50 1002.97 1003.36 1003.83 1004.14 1003.87 1004.17 1004.05 1004.19 1004.79 1005.21 1004.62 1004.21 1004.36 1004.29 1004.43 1004.26 1003.89 1003.87 1003.73 1003.85 1004.30 1005.19 1005.17 1005.34 1006.11 1006.52 1006.40 1006.73 1006.88 1007.09 1007.80 1008.08
1003.05 1002.92 1002.52 1002.16 1001.68 1001.39 1001.19 1001.15 1001.15 1001.14 1001.27 1001.49 1002.35 1002.70 1002.99 1003.32 1003.73 1003.97 1004.25 1004.31 1004.40 1004.27 1003.95 1003.69 1003.61 1003.63 1003.18 1003.09 1003.34 1002.86 1002.73 1003.20 1003.96 1004.43 1004.62 1005.00 1005.23 1005.59 1005.86 1006.26 1006.59 1007.09 1007.64
1001.74 1001.35 1001.15 1001.10 1000.77 1000.69 1000.43 1000.25 1000.20 1000.13 1000.21 1000.20 1000.53 1001.93 1002.11 1002.70 1003.36 1003.61 1003.68 1003.45 1002.90 1002.82 1003.11 1002.94 1002.23 1002.20 1002.51 1002.54 1002.64 1002.84 1002.54 1002.50 1003.05 1003.66 1003.82 1004.08 1004.47 1004.81 1005.10 1005.39 1005.71 1006.37 1006.87
1000.43 1000.41 1000.60 1000.49 1000.28 1000.03 999.73 999.63 999.40 999.22 999.23 999.28 999.44 1000.12 1000.52 1001.82 1002.67 1002.92 1002.90 1002.65 1002.14 1001.44 1001.28 1001.45 1001.28 1001.37 1001.38 1001.74 1002.02 1002.10 1002.57 1002.40 1002.67 1002.97 1003.05 1003.17 1003.60 1004.00 1004.22 1004.62 1005.14 1005.46 1006.52
999.46 999.48 999.45 999.44 999.17 998.91 998.69 998.37 998.25 998.23 998.17 998.19 998.49 998.69 998.77 999.69 1000.12 1000.92 1001.19 1001.27 1001.18 1000.79 1000.43 1000.17 1000.22 1000.97 1000.80 1000.82 1001.22 1001.38 1001.70 1001.83 1002.04 1001.91 1001.96 1002.34 1002.74 1003.26 1003.70 1003.90 1004.49 1005.12 1005.39
998.42 998.12 997.73 997.87 998.09 998.07 997.84 997.86 997.33 997.18 997.14 997.33 997.67 997.35 997.66 998.43 998.74 998.90 998.86 999.13 999.39 999.38 999.40 999.39 999.48 999.65 999.59 999.81 999.91 1000.38 1000.66 1000.86 1001.04 1000.87 1001.12 1001.42 1002.03 1002.77 1003.13 1003.50 1004.05 1004.65 1005.09
997.77 997.20 996.96 997.13 997.50 997.80 997.91 997.49 996.91 996.47 996.20 996.68 996.95 996.25 996.77 996.97 997.79 998.26 997.88 997.83 997.90 997.87 997.94 998.13 998.29 998.48 998.73 998.82 998.92 999.43 999.27 999.13 999.60 999.70 1000.29 1000.69 1001.28 1001.93 1002.42 1002.69 1003.48 1004.08 1004.87
997.36 996.99 997.22 997.38 997.26 997.24 997.25 997.16 996.37 996.14 995.75 996.11 995.88 995.32 995.15 995.84 996.32 996.35 996.39 996.57 996.66 996.53 996.70 997.13 997.36 997.64 997.96 998.33 998.71 998.81 998.63 998.85 998.52 998.82 999.59 999.96 1000.53 1001.33 1001.59 1002.09 1002.91 1003.54 1004.32
996.27 995.73 995.43 995.18 995.63 996.25 996.55 996.33 995.92 995.78 995.90 996.00 995.42 995.04 995.24 995.72 995.76 995.62 995.49 995.42 995.76 995.93 995.96 996.09 996.43 996.80 997.24 997.76 998.16 998.24 998.12 998.06 997.94 998.18 999.20 999.61 1000.06 1000.58 1001.13 1001.43 1002.18 1002.92 1003.65
996.57 995.76 995.05 995.21 995.39 995.61 995.82 995.69 995.46 995.48 995.47 995.36 994.98 994.76 994.99 995.10 994.78 994.67 994.74 994.62 994.89 995.24 995.32 995.56 995.70 995.98 996.69 996.97 997.13 997.32 997.72 998.06 997.87 998.16 999.03 999.22 999.58 999.99 1000.68 1001.24 1001.91 1002.54 1003.41
Wind_Speed
12 11 8 7 6 9 8 11 6 6 9 10 11 6 10 10 13 9 12 10 12 10 10 9 9 10 9 8 6 5 5 5 4 5 2 4 3 4 2 2 5 5 5
8 7 7 8 9 11 10 9 6 9 9 10 8 8 7 12 12 11 13 10 12 9 10 10 11 9 11 9 6 7 6 4 7 4 5 4 6 3 4 5 7 7 6
9 7 6 6 6 9 12 8 10 12 11 11 8 8 10 10 9 11 12 13 11 11 11 11 11 10 9 9 9 4 7 7 6 7 7 6 4 5 5 7 6 7 6
3 3 1 1 4 9 11 12 12 12 12 12 13 11 7 10 13 14 14 11 11 7 11 12 11 10 11 11 8 8 7 4 6 7 7 6 6 7 6 7 7 8 6
5 2 1 3 7 9 11 14 11 13 12 13 13 13 14 8 8 11 13 14 7 8 13 13 13 11 9 9 8 10 6 8 8 7 8 6 9 6 4 6 7 6 5
6 5 4 3 4 6 11 10 13 10 12 12 13 14 15 11 14 14 11 11 13 12 12 15 13 13 10 9 10 8 5 9 9 6 7 7 9 7 7 7 6 6 7
7 5 4 3 4 4 4 5 7 9 12 12 13 14 15 16 14 18 15 12 13 14 15 14 13 12 13 13 14 11 9 10 10 9 10 10 8 8 8 7 8 5 8
8 9 8 7 6 6 5 4 4 7 9 10 11 14 15 13 14 17 15 13 12 13 14 15 15 13 12 14 12 12 12 12 13 11 13 11 9 8 7 7 6 7 8
10 10 10 9 9 9 8 8 6 6 7 10 9 13 14 16 15 18 16 15 15 13 8 10 12 14 12 13 13 14 13 12 11 14 10 2 2 3 5 6 9 8 8
14 13 10 10 10 11 10 9 9 8 9 8 10 14 14 17 15 17 18 13 14 12 13 10 10 15 14 13 13 14 12 13 13 11 10 9 9 10 8 11 8 8 8
14 14 13 12 12 11 11 10 10 10 10 10 10 11 13 14 17 16 20 15 14 12 10 12 13 20 16 12 15 13 14 10 9 9 12 10 9 10 9 10 10 8 7
15 15 14 14 12 11 10 10 11 11 11 11 11 10 9 12 13 12 18 21 14 13 12 11 9 17 18 17 12 14 10 6 9 12 11 11 9 9 9 9 9 9 7
17 17 15 15 13 12 11 11 11 12 12 11 11 9 8 9 11 13 17 19 19 10 12 7 7 9 11 10 12 8 9 9 11 11 11 9 7 9 6 6 7 8 8
17 16 15 15 14 13 11 11 12 13 12 11 11 10 8 9 10 9 8 9 12 13 15 11 10 10 11 9 9 9 11 11 11 12 12 6 7 7 8 9 10 10 9
15 14 15 14 15 13 13 12 12 13 13 11 11 10 9 10 12 12 12 12 11 14 13 11 12 12 13 12 12 12 11 12 13 12 10 8 8 9 10 9 9 8 8
15 13 12 13 13 12 12 12 17 17 14 7 9 6 10 10 5 13 12 12 3 6 5 7 11 12 14 14 13 13 13 13 13 12 12 8 9 11 10 9 8 9 8
13 15 12 12 12 12 12 13 13 12 19 14 13 13 15 14 4 12 11 1 3 9 3 7 9 12 13 13 14 14 14 13 12 12 11 9 11 12 8 10 9 6 7
14 16 14 12 12 12 12 12 13 13 12 12 15 13 15 14 9 11 10 8 7 2 9 10 12 11 11 12 11 14 13 12 12 12 11 12 11 10 10 9 10 6 9
15 13 12 12 12 12 13 13 13 14 13 12 10 6 11 9 8 9 10 12 13 12 12 14 12 11 12 9 6 9 10 12 12 12 12 11 11 11 11 10 9 2 3
14 15 12 11 11 12 11 13 13 13 13 12 11 9 11 6 6 8 8 9 10 12 12 12 11 11 9 11 7 6 9 10 12 13 12 12 11 11 11 10 9 9 9
9 10 11 11 11 12 11 12 13 13 13 12 12 14 12 10 9 9 10 11 12 14 15 14 11 8 12 11 11 6 9 10 11 13 12 12 11 11 10 10 10 9 8
10 11 11 11 10 11 12 13 12 13 14 12 12 13 17 10 10 10 12 12 14 16 14 14 11 13 12 12 11 12 12 15 12 13 13 13 12 11 11 10 10 9 9
12 12 11 11 9 10 11 12 12 13 13 11 13 14 10 10 9 11 12 12 11 12 11 12 13 13 13 13 13 14 13 14 13 14 12 13 12 12 12 11 10 10 10
12 13 11 10 10 11 9 10 11 12 10 11 13 12 11 5 9 11 11 11 13 13 13 12 13 16 13 14 11 13 11 12 14 15 18 14 13 12 12 11 11 12 11
15 13 13 13 9 9 11 11 11 10 12 13 13 11 9 10 12 10 12 12 13 12 13 11 11 15 17 18 15 16 13 15 13 13 13 14 15 16 13 11 12 11 12
11 14 11 8 6 7 9 9 10 11 10 10 12 11 10 13 13 12 10 11 11 11 13 10 14 17 17 14 17 18 10 11 9 13 14 13 12 12 12 13 15 10 12
Wind_Direction
217 208 208 243 234 210 206 218 219 237 257 254 246 228 224 225 217 209 226 218 216 223 239 208 217 209 240 207 210 227 230 231 185 238 199 147 233 240 257 230 238 257 226
265 253 242 220 225 215 251 279 325 242 237 237 232 217 210 227 210 217 216 201 219 211 226 216 214 206 217 224 230 219 223 217 266 235 307 251 212 220 257 263 267 279 274
277 244 222 232 219 212 237 259 267 242 222 212 192 207 219 229 213 212 213 218 215 217 222 209 212 212 209 209 241 200 228 233 211 263 275 231 263 266 252 238 248 270 264
257 260 50 148 233 232 228 232 245 254 227 209 202 208 204 222 216 211 213 215 210 223 227 223 224 213 210 220 219 225 248 270 251 256 255 265 249 264 268 285 264 231 247
24 15 272 264 260 266 258 231 218 224 237 211 205 203 209 215 219 230 215 200 190 222 234 220 221 222 215 228 216 219 239 225 237 253 254 262 267 259 282 281 280 286 268
10 37 31 356 325 272 259 249 230 224 230 225 210 210 212 216 208 218 221 213 195 204 229 226 232 188 208 221 239 267 257 229 256 247 270 241 258 273 257 262 311 329 296
334 330 330 325 321 313 304 285 264 237 242 231 227 218 220 222 196 194 213 221 214 214 220 223 217 218 201 215 217 230 246 241 240 257 254 267 295 277 282 278 254 251 269
310 309 314 304 299 303 307 308 282 271 246 237 242 239 228 223 193 192 200 219 231 237 229 224 226 230 210 211 223 210 221 225 220 225 234 249 245 257 255 268 283 268 251
287 293 299 301 296 290 290 298 291 278 260 255 244 234 238 237 202 192 189 214 219 224 234 238 236 227 227 201 224 222 231 233 197 204 245 303 309 238 271 235 236 240 266
275 276 274 276 283 284 282 277 278 272 268 257 246 251 237 240 213 190 191 212 219 226 218 218 228 237 218 208 216 233 233 236 232 208 217 232 231 231 215 232 252 254 275
266 270 272 261 258 260 268 261 262 264 272 263 257 248 253 243 239 193 188 220 223 214 230 219 218 199 221 222 218 229 238 246 233 225 243 240 209 211 203 215 229 250 262
268 263 258 258 256 265 262 252 250 253 255 259 262 260 249 242 236 196 195 213 217 234 231 231 221 175 195 203 206 231 238 229 240 239 228 240 233 218 215 203 211 231 254
274 269 258 252 251 254 254 255 248 237 244 255 259 256 261 248 240 196 195 202 225 241 243 253 307 175 202 206 220 244 209 221 232 241 246 239 224 233 231 175 212 219 232
265 265 259 250 246 245 252 250 247 246 251 252 251 242 245 238 227 210 205 207 223 200 224 223 244 237 212 230 206 204 228 228 232 237 243 225 261 217 205 227 219 202 220
262 261 259 251 248 249 243 253 254 253 257 256 252 257 242 242 229 220 192 194 197 208 195 208 201 213 222 215 221 219 208 220 226 236 238 221 228 239 223 223 227 240 239
256 250 252 253 252 250 251 248 221 236 266 242 257 267 273 292 291 193 235 248 235 130 203 194 224 222 220 226 222 220 219 206 223 225 231 210 217 230 225 221 225 238 243
249 258 259 255 254 253 253 255 255 232 227 222 227 236 227 253 241 231 232 200 201 150 206 230 228 226 230 233 230 229 224 216 218 226 218 205 211 228 209 231 217 222 240
249 248 260 259 256 255 252 252 254 248 249 228 207 217 224 224 219 162 156 167 229 214 209 233 220 235 236 231 240 243 224 222 210 219 209 212 212 217 217 216 238 185 228
249 244 247 247 238 244 254 249 248 246 247 247 248 187 224 220 159 155 172 228 224 216 215 239 242 236 230 226 231 246 248 220 210 211 208 212 215 215 219 229 223 260 248
247 243 253 258 253 247 236 240 247 248 248 244 241 233 247 123 185 194 200 217 236 236 227 222 240 239 231 230 224 207 242 222 214 209 212 211 212 217 218 211 223 206 202
251 254 234 247 247 249 252 245 239 240 241 240 242 243 244 193 226 207 218 213 223 233 241 238 236 245 233 234 222 219 221 233 226 214 209 214 211 215 215 213 209 217 216
247 248 254 238 244 252 250 252 251 246 238 237 243 245 159 216 241 238 228 206 216 226 228 231 225 231 227 226 228 230 210 225 224 218 206 210 203 205 208 208 207 210 204
258 259 258 253 247 254 258 256 257 247 236 229 237 246 184 214 220 226 235 233 233 236 237 229 235 237 237 241 229 226 227 229 207 209 205 201 199 200 203 197 203 202 208
262 253 236 250 255 251 245 240 254 242 243 232 239 243 251 225 236 233 237 241 250 241 229 229 227 236 235 234 228 230 228 224 214 195 200 197 199 188 199 194 201 202 202
266 252 257 260 245 234 245 241 237 223 219 226 245 254 247 244 243 241 249 239 232 238 245 239 238 236 234 221 212 214 228 231 225 181 191 195 202 190 202 190 194 194 197
274 272 276 280 269 236 238 234 231 227 228 233 241 242 243 244 249 252 257 238 225 230 236 227 228 224 223 213 208 196 204 214 178 176 193 195 194 189 194 197 190 193 190